Location: Corcelles
(46.1547°N, 4.7234°E)
Time: 04:42:49
(UTC+00:00)

Gbstr 26 Del rocket - Pass Details

Date: 14 July 2020
Orbit: 492 x 1264 km, 51.8° (Epoch: 06 August)

Event Time Altitude Azimuth Distance (km) Brightness Sun altitude
Rises 03:24:13 0° 293° (WNW) 2,780 6.1 -6.3°
Reaches altitude 10° 03:26:27 10° 284° (WNW) 1,962 5.3 -6.0°
Maximum altitude 03:30:30 34° 219° (SW) 1,119 3.9 -5.5°
Drops below altitude 10° 03:35:19 10° 156° (SSE) 2,356 5.9 -4.8°
Sets 03:38:14 0° 148° (SSE) 3,430 6.8 -4.4°
